User: anonymous   Login
Location: ??????
(38.0677°N, 22.9870°E)
Time: 16:18:59
(UTC+00:00)
Language:

OAO 3 Rocket - Orbit

View from above orbital plane
View from above orbital plane
View from above satellite
View from above satellite

Ground track
Ground track

The orbit data is extracted from the following two-line orbital elements,

1 06155U 72065B   24199.47066689  .00002683  00000-0  39546-3 0  9997
2 06155  35.0011 216.3726 0035025   6.8094 353.3076 14.74622598752502
Epoch (UTC): 17 July 2024 11:17:45
Eccentricity: 0.0035025
inclination: 35.0011°
perigee height: 622 km
apogee height: 671 km
right ascension of ascending node: 216.3726°
argument of perigee: 6.8094°
revolutions per day: 14.74622598
mean anomaly at epoch: 353.3076°
orbit number at epoch: 75250

The dashed part of the orbit path shows where the satellite is in the earth's shadow,  

DLR